Location: Dvur Kralove nad Labem
(50.4330°N, 15.8170°E)
Time: 15:05:19
(UTC+02:00)

ISS - Pass Details

Date: 25 May 2018
Orbit: 402 x 407 km, 51.6° (Epoch: 24 May)

Event Time Altitude Azimuth Distance (km) Brightness Sun altitude
Rises 00:28:30 0° 281° (W) 2,320 0.2 -18.5°
Reaches altitude 10° 00:30:35 10° 283° (WNW) 1,459 -0.8 -18.5°
Maximum altitude 00:33:51 78° 10° (N) 416 -3.8 -18.5°
Enters shadow 00:35:43 23° 94° (E) 900 -2.2 -18.6°
